Air Force Academy, CO

11:16 PM MDT on July 21, 2017 (GMT -0600)
Usaf Academy

Weather History for KAFF - January, 2014

Change the Weather History Date:

Wednesday, January 29, 2014

  Actual Average Record
Temperature  
Mean Temperature 36 °F -  
Max Temperature 50 °F 40 °F 58 °F (2011)
Min Temperature 23 °F 20 °F 0 °F (2000)
Degree Days  
Heating Degree Days 28    
Moisture  
Dew Point 13 °F    
Average Humidity 33    
Maximum Humidity 49    
Minimum Humidity 20    
Precipitation  
Precipitation 0.42 in - - ()
Sea Level Pressure  
Sea Level Pressure 29.75 in    
Wind  
Wind Speed 14 mph (West)    
Max Wind Speed 51 mph    
Max Gust Speed 67 mph    
Visibility 10 miles    
Events      
Averages and records for this station are not official NWS values.
T = Trace of Precipitation, MM = Missing Value Source: NWS Daily Summary

Daily Weather History Graph

Daily Weather History Graph

Search for Another Location

Airport or City:

Trip Planner

Search our weather history database for the weather conditions in past years. The results will help you decide how hot, cold, wet, or windy it might be!

Date:

Astronomy

Jan. 29, 2014 Rise Set
Actual Time 7:08 AM MST 5:17 PM MST
Civil Twilight 6:39 AM MST 5:45 PM MST
Nautical Twilight 6:07 AM MST 6:17 PM MST
Astronomical Twilight 5:36 AM MST 6:49 PM MST
Moon 5:46 AM MST (1/29) 4:19 PM MST (1/29)
Length of Visible Light 11h 05m
Length of Day
10h 09m
Waning Crescent, 2% of the Moon is Illuminated
Jan 29
Waning Crescent
Jan 30
New
Feb 6
First Quarter
Feb 14
Full
Feb 22
Last Quarter

Hourly Weather History & Observations

Time (MST) Temp. Windchill Dew Point Humidity Pressure Visibility Wind Dir Wind Speed Gust Speed Precip Events Conditions
12:58 AM 23.2 °F 16.0 °F 0.1 °F 37% 30.12 in 10.0 mi Variable 5.8 mph - N/A   Clear
1:12 AM 23.0 °F 11.1 °F -0.4 °F 36% 29.96 in 10.0 mi NNE 12.7 mph - N/A   Clear
1:58 AM 31.1 °F 21.4 °F -2.9 °F 23% 30.06 in 10.0 mi North 12.7 mph 20.7 mph N/A   Clear
2:58 AM 35.4 °F 26.8 °F -0.6 °F 22% 30.01 in 10.0 mi WNW 12.7 mph 28.8 mph N/A   Clear
3:58 AM 32.0 °F 27.5 °F -2.6 °F 23% 30.03 in 10.0 mi Variable 4.6 mph 18.4 mph N/A   Clear
4:58 AM 33.4 °F 27.3 °F -1.8 °F 22% 30.05 in 10.0 mi Variable 6.9 mph 18.4 mph N/A   Clear
5:52 AM 33.8 °F 25.3 °F -4.0 °F 20% 29.92 in 10.0 mi NW 11.5 mph 26.5 mph N/A   Clear
5:58 AM 34.7 °F 31.8 °F -2.9 °F 20% 30.02 in 10.0 mi Variable 3.5 mph 26.5 mph N/A   Clear
6:58 AM 36.3 °F - 0.7 °F 22% 30.05 in 10.0 mi Variable 2.3 mph - N/A   Clear
7:58 AM 37.4 °F 28.2 °F 6.1 °F 27% 30.05 in 10.0 mi WNW 16.1 mph 25.3 mph N/A   Clear
8:02 AM 37.4 °F 28.5 °F 6.8 °F 28% 29.91 in 10.0 mi West 15.0 mph 25.3 mph N/A   Clear
8:58 AM 32.5 °F 28.1 °F 2.7 °F 28% 30.10 in 10.0 mi Variable 4.6 mph - N/A   Clear
9:58 AM 33.8 °F 27.0 °F 8.4 °F 35% 30.09 in 10.0 mi South 8.1 mph - N/A   Clear
10:58 AM 38.5 °F 31.6 °F 11.7 °F 33% 30.04 in 10.0 mi SSE 10.4 mph - N/A   Clear
11:58 AM 40.5 °F 33.2 °F 10.4 °F 29% 29.96 in 10.0 mi South 12.7 mph - N/A   Clear
12:58 PM 42.1 °F 36.1 °F 10.2 °F 27% 29.85 in 10.0 mi SSE 10.4 mph - N/A   Clear
1:58 PM 40.1 °F 33.6 °F 14.5 °F 35% 29.80 in 10.0 mi SSE 10.4 mph - N/A   Partly Cloudy
2:58 PM 38.7 °F 30.9 °F 14.0 °F 37% 29.75 in 10.0 mi SSE 12.7 mph - N/A   Clear
3:58 PM 42.3 °F 36.3 °F 15.1 °F 33% 29.72 in 10.0 mi SE 10.4 mph 19.6 mph N/A   Clear
4:58 PM 39.0 °F 32.3 °F 17.4 °F 42% 29.73 in 10.0 mi SSW 10.4 mph - N/A   Clear
5:58 PM 35.8 °F 28.3 °F 18.1 °F 49% 29.68 in 10.0 mi ENE 10.4 mph - N/A   Clear
6:33 PM 41.0 °F 31.6 °F 17.6 °F 39% 29.65 in 10.0 mi WNW 20.7 mph 26.5 mph N/A   Clear
6:56 PM 44.6 °F 38.4 °F 19.4 °F 37% 29.65 in 10.0 mi NW 12.7 mph 17.3 mph N/A   Clear
6:58 PM 44.6 °F 38.4 °F 19.0 °F 36% 29.60 in 10.0 mi NW 12.7 mph 17.3 mph N/A   Clear
6:59 PM 44.6 °F 38.4 °F 19.4 °F 37% 29.65 in 10.0 mi West 12.7 mph 17.3 mph N/A   Clear
7:03 PM 42.8 °F 36.2 °F 19.4 °F 39% 29.65 in 10.0 mi West 12.7 mph 19.6 mph N/A   Clear
7:24 PM 44.6 °F 38.4 °F 19.4 °F 37% 29.65 in 10.0 mi WNW 12.7 mph 17.3 mph N/A   Clear
7:58 PM 45.9 °F 38.5 °F 21.4 °F 38% 29.55 in 10.0 mi WNW 18.4 mph 34.5 mph N/A   Clear
7:59 PM 46.4 °F 39.2 °F 21.2 °F 37% 29.62 in 10.0 mi NW 18.4 mph 34.5 mph N/A   Clear
8:01 PM 46.4 °F 39.8 °F 21.2 °F 37% 29.61 in 10.0 mi West 16.1 mph 34.5 mph N/A   Clear
8:38 PM 44.6 °F 36.9 °F 21.2 °F 39% 29.59 in 10.0 mi WNW 18.4 mph 24.2 mph N/A   Clear
8:42 PM 46.4 °F 40.1 °F 19.4 °F 34% 29.59 in 10.0 mi WNW 15.0 mph 24.2 mph N/A   Clear
8:58 PM 46.8 °F - 20.3 °F 35% 29.54 in 10.0 mi West 20.7 mph 34.5 mph N/A   Clear
9:38 PM 48.2 °F - 21.2 °F 34% 29.54 in 10.0 mi WSW 28.8 mph 46.0 mph N/A   Squalls
9:42 PM 48.2 °F - 21.2 °F 34% 29.53 in 10.0 mi WSW 31.1 mph 46.0 mph N/A   Squalls
9:58 PM 48.0 °F - 21.9 °F 36% 29.48 in 10.0 mi WSW 36.8 mph 48.3 mph 0.01 in   Clear
10:34 PM 48.2 °F - 21.2 °F 34% 29.51 in 10.0 mi West 39.1 mph 51.8 mph N/A   Squalls
10:39 PM 48.2 °F - 21.2 °F 34% 29.49 in 10.0 mi West 36.8 mph 55.2 mph N/A   Squalls
10:58 PM 48.4 °F - 21.9 °F 35% 29.42 in 10.0 mi West 50.6 mph 66.7 mph 0.23 in   Clear
11:00 PM 48.2 °F - 23.0 °F 37% 29.52 in 10.0 mi West 43.7 mph 66.7 mph N/A   Squalls
11:19 PM 48.2 °F - 23.0 °F 37% 29.50 in 10.0 mi West 35.7 mph 55.2 mph N/A   Squalls
11:47 PM 50.0 °F - 21.2 °F 32% 29.46 in 10.0 mi WSW 40.3 mph 61.0 mph N/A   Squalls
11:58 PM 50.0 °F - 21.7 °F 33% 29.35 in 10.0 mi WSW 34.5 mph 59.8 mph 0.18 in   Clear